Weather in Valishchevo

Russia / Ryazan Oblast     54°43′32″N   39°25′37″E
temp.,
°C
wind,
m/s
gust,
m/s
humid.,
%
clouds,
%
prec.,
mm/h
press.,
hPa
HPBL,
m
20 june, sun
sun2000:00+17sw33882 0.0 102422
03:00+16wsw22900 0.0 102412
06:00+18sw12870 0.0 102467
09:00+22ssw22750 0.0 1024409
12:00+25ssw22650 0.0 1023990
15:00+26s22610 0.0 10221111
18:00+26ssw22715 0.0 1021970
21:00+21ssw1182100 0.0 102111
21 june, mon
mon2100:00+19ssw2289100 0.0 102214
03:00+18sw128894 0.0 102211
06:00+20se1284100 0.0 102250
09:00+23se2374100 0.0 1022364
12:00+26sse3365100 0.0 1022881
15:00+27sse346091 0.0 10211181
18:00+27se2372100 0.0 1020205
21:00+21sse2285100 0.0 102116
22 june, tue
tue2200:00+20s228898 0.0 102111
03:00+18sse2289100 0.0 102215
06:00+20sse238769 0.0 102285
09:00+24sse23736 0.0 1022418
12:00+27s34614 0.0 1022880
15:00+29s23560 0.0 10221124
18:00+28sse22670 0.0 1021450
21:00+22sse12760 0.0 102111
23 june, wed
wed2300:00+20s22840 0.0 102211
03:00+19s11850 0.0 102211
06:00+21se11815 0.0 102239
09:00+25e226917 0.0 1023338
12:00+28sse23595 0.0 1023989
15:00+29s22565 0.0 10221109
18:00+29s12644 0.0 1022891
21:00+23sw00710 0.0 102211
24 june, thu
thu2400:00+21wsw11790 0.0 102211
03:00+20w00830 0.0 102211
06:00+22wsw11810 0.0 102241
09:00+26s11690 0.0 1022354
12:00+29s22580 0.0 1021949
15:00+30ssw22520 0.0 10211552
18:00+30sw12640 0.0 10201290
21:00+24ssw12720 0.0 101911